Weather History for Muskegon, MI

Change the Weather History Date:

Saturday, January 5, 2013

  Actual Average Record
Temperature  
Mean Temperature 30 °F 26 °F  
Max Temperature 39 °F 31 °F 54 °F (1998)
Min Temperature 20 °F 21 °F -12 °F (1912)
Degree Days  
Heating Degree Days 35 39  
Month to date heating degree days 187 193  
Since 1 July heating degree days 2386 2639  
Cooling Degree Days 0 0  
Month to date cooling degree days 0 0  
Year to date cooling degree days 0 0  
Moisture  
Dew Point 28 °F    
Average Humidity 81    
Maximum Humidity 92    
Minimum Humidity 69    
Precipitation  
Precipitation 0.09 in 0.07 in 0.65 in (1955)
Month to date precipitation 0.10 0.36  
Year to date precipitation 0.10 0.36  
Snow  
Snow 0.00 in 1.00 in 4.30 in (1991)
Month to date snowfall 0.4 4.5  
Since 1 July snowfall 8.6 39.6  
Snow Depth T in    
Sea Level Pressure  
Sea Level Pressure 30.10 in    
Wind  
Wind Speed 10 mph (SSW)    
Max Wind Speed 29 mph    
Max Gust Speed 38 mph    
Visibility 8 miles    
Events Rain    
T = Trace of Precipitation, MM = Missing Value Source: NWS Daily Summary

Daily Weather History Graph

Daily Weather History Graph

Search for Another Location

Airport:

Trip Planner

Search our weather history database for the weather conditions in past years. The results will help you decide how hot, cold, wet, or windy it might be!

Date:

Astronomy

Jan. 05, 2013 Rise Set
Actual Time 8:16 AM EST 5:24 PM EST
Civil Twilight 7:44 AM EST 5:56 PM EST
Nautical Twilight 7:09 AM EST 6:32 PM EST
Astronomical Twilight 6:34 AM EST 7:06 PM EST
Moon 1:16 AM EST (1/5) 12:18 PM EST (1/5)
Length of Visible Light 10h 11m
Length of Day
9h 07m
Last Quarter, 44% of the Moon is Illuminated
Jan 5
Last Quarter
Jan 11
New
Jan 18
First Quarter
Jan 26
Full
Feb 3
Last Quarter

Hourly Weather History & Observations

Time (EST) Temp. Windchill Dew Point Humidity Pressure Visibility Wind Dir Wind Speed Gust Speed Precip Events Conditions
12:55 AM 30.9 °F 25.2 °F 24.1 °F 76% 30.19 in 10.0 mi West 5.8 mph - N/A   Partly Cloudy
1:55 AM 27.0 °F 21.6 °F 23.0 °F 85% 30.21 in 10.0 mi WSW 4.6 mph - N/A   Scattered Clouds
2:07 AM 30.2 °F 25.4 °F 24.8 °F 80% 30.18 in 10.0 mi WSW 4.6 mph - N/A   Mostly Cloudy
2:55 AM 33.1 °F 27.7 °F 25.0 °F 72% 30.23 in 10.0 mi WSW 5.8 mph - N/A   Overcast
3:55 AM 28.0 °F - 23.0 °F 81% 30.23 in 9.0 mi Calm Calm - N/A   Overcast
4:39 AM 24.8 °F - 21.2 °F 86% 30.19 in 6.0 mi Calm Calm - N/A   Scattered Clouds
4:55 AM 25.0 °F - 21.9 °F 88% 30.22 in 7.0 mi Calm Calm - N/A   Clear
5:55 AM 21.9 °F - 19.0 °F 89% 30.20 in 3.0 mi Calm Calm - N/A   Clear
6:32 AM 23.0 °F 17.0 °F 19.4 °F 86% 30.18 in 5.0 mi SSE 4.6 mph - N/A   Mostly Cloudy
6:55 AM 24.1 °F 17.0 °F 19.9 °F 84% 30.20 in 6.0 mi SE 5.8 mph - N/A   Mostly Cloudy
7:55 AM 24.1 °F 18.2 °F 21.0 °F 88% 30.19 in 5.0 mi ESE 4.6 mph - N/A   Mostly Cloudy
8:55 AM 28.9 °F 21.9 °F 24.1 °F 82% 30.20 in 4.0 mi SE 6.9 mph - N/A   Haze
9:35 AM 28.4 °F 19.7 °F 24.8 °F 86% 30.17 in 4.0 mi ESE 9.2 mph - N/A   Scattered Clouds
9:55 AM 28.9 °F 21.1 °F 25.0 °F 85% 30.19 in 4.0 mi ESE 8.1 mph - N/A   Mostly Cloudy
10:36 AM 30.2 °F 21.9 °F 26.6 °F 86% 30.17 in 5.0 mi SE 9.2 mph - N/A   Haze
10:55 AM 32.0 °F 23.6 °F 26.1 °F 79% 30.20 in 6.0 mi SSE 10.4 mph - N/A   Haze
10:58 AM 32.0 °F 24.8 °F 26.6 °F 80% 30.17 in 6.0 mi SSE 8.1 mph - N/A   Haze
11:45 AM 33.8 °F 24.8 °F 28.4 °F 81% 30.13 in 5.0 mi South 12.7 mph - N/A   Haze
11:55 AM 34.0 °F 24.6 °F 28.9 °F 82% 30.16 in 5.0 mi South 13.8 mph - N/A   Haze
12:32 PM 33.8 °F 23.5 °F 28.4 °F 81% 30.13 in 6.0 mi South 16.1 mph - N/A   Haze
12:55 PM 34.0 °F 25.5 °F 28.9 °F 82% 30.14 in 6.0 mi South 11.5 mph - N/A   Haze
1:55 PM 35.1 °F 26.9 °F 30.0 °F 82% 30.10 in 7.0 mi South 11.5 mph - N/A   Overcast
2:26 PM 35.6 °F 28.6 °F 30.2 °F 81% 30.06 in 7.0 mi South 9.2 mph - N/A   Overcast
2:47 PM 37.4 °F 32.8 °F 30.2 °F 75% 30.03 in 9.0 mi Variable 5.8 mph - N/A   Partly Cloudy
2:55 PM 37.9 °F 32.1 °F 30.9 °F 76% 30.05 in 10.0 mi South 8.1 mph - N/A   Partly Cloudy
3:55 PM 37.0 °F 28.5 °F 30.9 °F 79% 30.05 in 10.0 mi South 13.8 mph - N/A   Partly Cloudy
4:16 PM 37.4 °F 29.3 °F 30.2 °F 75% 30.02 in 10.0 mi SSW 12.7 mph - N/A   Mostly Cloudy
4:55 PM 37.9 °F 28.9 °F 30.9 °F 76% 30.04 in 10.0 mi SSW 16.1 mph - N/A   Mostly Cloudy
5:08 PM 37.4 °F 27.2 °F 30.2 °F 75% 30.02 in 10.0 mi SSW 19.6 mph 25.3 mph N/A   Mostly Cloudy
5:55 PM 39.2 °F 30.8 °F 30.2 °F 70% 30.00 in 10.0 mi SW 15.0 mph - N/A   Overcast
6:05 PM 39.2 °F 30.8 °F 30.2 °F 70% 30.00 in 10.0 mi SW 15.0 mph 24.2 mph N/A   Overcast
6:55 PM 37.0 °F 28.5 °F 33.1 °F 86% 30.01 in 8.0 mi SW 13.8 mph 26.5 mph 0.00 in Rain Light Rain
7:46 PM 39.2 °F 29.6 °F 33.8 °F 81% 29.98 in 10.0 mi SW 19.6 mph 33.4 mph 0.03 in Rain Light Rain
7:55 PM 39.0 °F 29.6 °F 33.1 °F 79% 30.00 in 10.0 mi SW 18.4 mph 38.0 mph 0.03 in   Overcast
8:16 PM 37.4 °F 26.4 °F 33.8 °F 87% 29.97 in 10.0 mi SW 23.0 mph 28.8 mph 0.00 in Rain Light Rain
8:55 PM 37.9 °F 27.1 °F 34.0 °F 86% 29.98 in 10.0 mi SW 23.0 mph 31.1 mph 0.00 in Rain Light Rain
9:03 PM 37.4 °F 27.2 °F 33.8 °F 87% 29.96 in 10.0 mi SW 19.6 mph 31.1 mph 0.00 in Rain Light Rain
9:55 PM 37.9 °F 28.2 °F 34.0 °F 86% 29.97 in 9.0 mi SSW 18.4 mph 29.9 mph 0.02 in Rain Light Rain
10:55 PM 37.9 °F 28.2 °F 34.0 °F 86% 29.95 in 9.0 mi SW 18.4 mph 27.6 mph 0.02 in Rain Light Rain
11:13 PM 37.4 °F 26.9 °F 33.8 °F 87% 29.93 in 10.0 mi SW 20.7 mph 27.6 mph 0.01 in Rain Light Rain
11:55 PM 37.9 °F 28.9 °F 33.1 °F 83% 29.94 in 10.0 mi SW 16.1 mph 29.9 mph 0.02 in Rain Light Rain